Regional Weather Roundup
Issued by NWS Charleston, WV

Home | Current Version | Previous Version | Graphics & Text | Print | Product List | Glossary On
Versions: 1 2 3 4 5 6 7 8 9 10 11 12 13 14 15 16 17 18 19 20 21 22 23 24 25 26 27 28 29 30 31 32 33 34 35 36 37 38 39 40 41 42 43 44 45 46 47 48 49 50
069
ASUS41 KRLX 310010
RWRRLX
West Virginia Regional Weather Roundup
National Weather Service Charleston WV
800 PM EDT MON MAY 30 2016

Note: "fair" indicates few or no clouds below 12,000 feet with no
significant weather and/or obstructions to visibility.

WVZ003-310100-
Northern Panhandle of West Virginia

CITY           SKY/WX    TMP DP  RH WIND       PRES   REMARKS
WHEELING         N/A     79  56  45 CALM      29.98S
$$

WVZ009-310100-
Northwest West Virginia

CITY           SKY/WX    TMP DP  RH WIND       PRES   REMARKS
PARKERSBURG      N/A     81  60  48 NW3       29.99S
$$

WVZ006-310100-
Western West Virginia

CITY           SKY/WX    TMP DP  RH WIND       PRES   REMARKS
HUNTINGTON       N/A     81  59  47 N5        29.97S
$$

WVZ015-310100-
West Central West Virginia

CITY           SKY/WX    TMP DP  RH WIND       PRES   REMARKS
CHARLESTON       N/A     81  59  47 CALM      29.98R
$$

WVZ022-031-310100-
North Central West Virginia

CITY           SKY/WX    TMP DP  RH WIND       PRES   REMARKS
CLARKSBURG       N/A     77  65  66 CALM      29.98R
MORGANTOWN       N/A     80  54  40 VRB3      29.99R
$$

WVZ025-035-042-045-310100-
Southern West Virginia

CITY           SKY/WX    TMP DP  RH WIND       PRES   REMARKS
BECKLEY          N/A     74  59  59 NW6       30.05R
LOGAN            N/A     77  63  61 CALM      30.01R
BLUEFIELD        N/A     74  54  49 VRB5      30.07R
LEWISBURG        N/A     70  60  69 CALM      30.04S
$$

WVZ047-310100-
Northern Mountains of West Virginia

CITY           SKY/WX    TMP DP  RH WIND       PRES   REMARKS
ELKINS           N/A     74  57  55 N3        30.03R
$$

WVZ052-310100-
Eastern Panhandle of West Virginia

CITY           SKY/WX    TMP DP  RH WIND       PRES   REMARKS
MARTINSBURG    MOCLDY    73  62  68 W12       29.95R
PETERSBURG     MOCLDY    77  65  65 SE7       29.98R
$$




USA.gov is the U.S. government's official web portal to all federal, state and local government web resources and services.